Location: Unspecified
(0.0000°N, 0.0000°E)
Time: 15:12:54
(UTC+00:00)

Hubble Space Telescope - Pass Details

Date: 16 September 2020
Orbit: 536 x 540 km, 28.5° (Epoch: 18 September)

Event Time Altitude Azimuth Distance (km) Brightness Sun altitude
Exits shadow 04:31:57 21° 191° (SSW) 1,234 2.4 -20.7°
Maximum altitude 04:33:43 29° 151° (SSE) 1,001 2.4 -20.3°
Drops below altitude 10° 04:37:17 10° 90° (E) 1,775 4.7 -19.4°
Sets 04:39:45 0° 78° (ENE) 2,663 5.9 -18.7°
